Tracking 22093 objects as of 18-Jan-2021
HD Live streaming from Space Station
objects crossing your sky now

STARLINK-1496

Track STARLINK-1496 now!
10-day predictions
STARLINK-1496 is classified as:


NORAD ID: 45780
Int'l Code: 2020-038BC
Perigee: 555.6 km
Apogee: 558.1 km
Inclination: 53.0 °
Period: 95.6 minutes
Semi major axis: 6927 km
RCS: Unknown
Launch date: June 13, 2020
Source: United States (US)
Launch site: AIR FORCE EASTERN TEST RANGE (AFETR)
aabbcc
Your satellite tracking list
Your tracking list is empty




NASA's NSSDC Master Catalog

Two Line Element Set (TLE):
1 45780U 20038BC  21017.85964740 -.00001221  00000-0 -64661-4 0  9996
2 45780  52.9903 342.0674 0001839  69.2436 290.8749 15.05577488 33860
Source of the keplerian elements: AFSPC